Simultaneous Nadir Overpasses (SNOs) Predictions

Prediction of SNOs between METOP-B and TERRA Satellite Orbit:

Table of predicted SNOs for the next 14.0 days since TLE Epoch: 1/17/2015
Index Date (METOP-B) Time (METOP-B) Lat,Lon (METOP-B) SZA (METOP-B ) Date (TERRA) Time (TERRA) Lat,Lon (TERRA) SZA (TERRA ) Distance(km) Time Diff (sec)
1 01/17/2015 05:31:58 81.27, 143.46 104.38 01/17/2015 05:33:10 81.28, 143.50 104.42 1.04 72
2 01/17/2015 06:22:38 -81.28, -48.92 75.60 01/17/2015 06:22:37 -81.28, -48.96 75.61 0.62 1
3 01/17/2015 07:12:49 81.29, 130.17 105.72 01/17/2015 07:11:36 81.71, 129.59 105.87 48.34 73
4 01/20/2015 01:06:22 81.27,-150.38 103.75 01/20/2015 01:07:26 81.27,-150.27 103.79 1.78 64
5 01/20/2015 01:57:01 -81.28, 17.63 76.18 01/20/2015 01:56:52 -81.29, 17.68 76.18 1.21 9
6 01/22/2015 20:40:45 81.27, -83.88 103.12 01/22/2015 20:41:41 81.27, -83.87 103.15 0.42 56
7 01/22/2015 21:31:23 -81.28, 84.12 76.81 01/22/2015 21:31:06 -81.29, 84.11 76.82 0.63 17
8 01/25/2015 16:15:07 81.27, -17.45 102.44 01/25/2015 16:15:54 81.28, -17.29 102.48 2.76 47
9 01/25/2015 17:05:47 -81.27, 150.17 77.54 01/25/2015 17:05:21 -81.27, 150.34 77.54 3.02 26
10 01/28/2015 11:49:30 81.27, 48.93 101.71 01/28/2015 11:50:08 81.27, 49.09 101.74 2.68 38




NCC Satellite Simultaneous Nadir Overpasses (SNOs) Prediction Service
